Погода в Алексееве

Россия / Республика Карелия     62°02′41″N   36°02′42″E
темп.,
°C
ветер,
м/с
пор.,
м/с
влажн.,
%
обл.,
%
осадки,
мм/ч
давл.,
гПа
погр.,
м
20 апреля, вт
вт2000:00+1в278680 0.0 1031111
03:000вюв26875 0.0 103188
06:00−1вюв26860 0.0 1030117
09:00+5юв36650 0.0 1029423
12:00+8ююв35545 0.0 10281224
15:00+9юв45515 0.0 10261412
18:00+8юв3759100 0.0 1024492
21:00+3вюв387799 0.0 1023144
21 апреля, ср
ср2100:00+2вюв3977100 0.0 1021172
03:00+1в3880100 0.0 1020168
06:00+1в3108097 0.0 1017221
09:00+4в4967100 0.0 1014443
12:00+7в4858100 0.0 1010938
15:00+2в41096100 2.0 1008629
18:00+2всв3897100 1.1 1006409
21:00+2вюв3798100 1.6 1004452
22 апреля, чт
чт2200:00+2вюв2498100 0.2 1002348
03:00+1юз11100100 1.7 1002127
06:00+1з2599100 1.5 1003148
09:00+1зюз379499 2.0 1005396
12:00+3юз478695 0.0 1007509
15:00+6юз4775100 0.1 1008672
18:00+5ю398164 0.0 1009407
21:00+3ююв3118849 0.0 1010321
23 апреля, пт
пт2300:00+2юв27968 0.0 1010143
03:00+2вюв289710 0.0 1010158
06:00+2юв3997100 0.0 1011204
09:00+7ююв488394 0.0 1011398
12:00+12юв51070100 0.0 10101081
15:00+13юв51175100 0.4 10091208
18:00+11ююв51180100 1.7 1009970
21:00+4зсз1396100 4.0 1011132
24 апреля, сб
сб2400:00+3зюз2396100 0.1 1012179
03:00+3сз2496100 0.6 1010212
06:00+3сз2496100 1.7 1010283
09:00+3ссз2296100 2.1 1010198
12:00+9юв2988100 0.1 1008700
15:00+11ю41181100 1.7 1006746
18:00+4зюз2298100 1.7 1008149
21:00+2юз2498100 2.8 1009199